Location: Elaina
(34.1445°N, 106.7742°W)
Time: 12:55:41
(UTC+00:00)

NOSS 3-1 (C) - Pass Details

Date: 23 March 2026
Orbit: 618 x 1583 km, 63.4° (Epoch: 10 January)

Event Time Altitude Azimuth Distance (km) Brightness Sun altitude
Rises 11:45:28 0° 331° (NNW) 3,927 6.5 -17.4°
Reaches altitude 10° 11:47:56 10° 333° (NNW) 3,093 6.0 -16.9°
Maximum altitude 11:55:37 75° 59° (ENE) 1,411 4.4 -15.4°
Drops below altitude 10° 12:04:53 10° 144° (SE) 3,694 6.8 -13.5°
Sets 12:08:05 0° 146° (SE) 4,726 7.4 -12.9°
